| time (UTC) | temp F | wind direction | speed knots | gust knots | rain 1hr in | rain 24hr in | rain mn in | humidity % | barometer mb |
| 20260508010538 | 74 | 254 | 0.0 | 0.9 | 0.00 | 0.00 | 0.00 | 97 | 979.0 |
| 20260508010035 | 74 | 262 | 0.0 | 0.0 | 0.00 | 0.00 | 0.00 | 98 | 979.4 |
| 20260508005531 | 74 | 262 | 0.0 | 0.9 | 0.00 | 0.00 | 0.00 | 98 | 979.2 |
| 20260508005028 | 74 | 263 | 0.0 | 0.0 | 0.00 | 0.00 | 0.00 | 98 | 979.1 |
| 20260508004524 | 74 | 262 | 0.0 | 0.0 | 0.00 | 0.00 | 0.00 | 98 | 979.0 |
| 20260508004021 | 74 | 256 | 0.0 | 0.0 | 0.00 | 0.00 | 0.00 | 98 | 979.2 |
| 20260508003518 | 74 | 256 | 0.0 | 0.0 | 0.00 | 0.00 | 0.00 | 98 | 978.8 |
| 20260508003015 | 74 | 256 | 0.0 | 0.0 | 0.00 | 0.00 | 0.00 | 98 | 979.0 |
| 20260508002511 | 74 | 256 | 0.0 | 0.0 | 0.00 | 0.00 | 0.00 | 98 | 978.9 |
| 20260508002009 | 74 | 262 | 0.0 | 0.0 | 0.00 | 0.00 | 0.00 | 99 | 979.0 |
| 20260508001504 | 74 | 262 | 0.0 | 0.0 | 0.00 | 0.00 | 0.00 | 98 | 978.9 |
| 20260508001001 | 74 | 247 | 0.0 | 0.0 | 0.00 | 0.00 | 0.00 | 99 | 978.7 |
| 20260508000457 | 73 | 247 | 0.0 | 0.0 | 0.00 | 0.00 | 0.00 | 99 | 979.0 |
| 20260507235954 | 73 | 247 | 0.0 | 0.0 | 0.00 | 0.00 | 0.00 | 99 | 978.9 |
| 20260507235450 | 73 | 247 | 0.0 | 0.0 | 0.00 | 0.00 | 0.00 | 99 | 978.7 |
| 20260507234948 | 73 | 235 | 0.0 | 0.0 | 0.00 | 0.00 | 0.00 | 99 | 978.8 |
| 20260507234444 | 73 | 235 | 0.0 | 0.0 | 0.00 | 0.00 | 0.00 | 99 | 978.6 |
| 20260507233941 | 73 | 235 | 0.0 | 0.0 | 0.00 | 0.00 | 0.00 | 99 | 978.6 |
| 20260507233438 | 73 | 235 | 0.0 | 0.0 | 0.00 | 0.00 | 0.00 | 98 | 978.5 |
| 20260507232937 | 73 | 235 | 0.0 | 0.0 | 0.00 | 0.00 | 0.00 | 99 | 978.5 |
| 20260507232432 | 73 | 235 | 0.0 | 0.0 | 0.00 | 0.00 | 0.00 | 98 | 978.5 |
| 20260507231930 | 72 | 235 | 0.0 | 0.0 | 0.00 | 0.00 | 0.00 | 98 | 978.3 |
| 20260507231426 | 72 | 244 | 0.0 | 0.0 | 0.00 | 0.00 | 0.00 | 98 | 978.2 |
| 20260507230923 | 72 | 245 | 0.0 | 0.0 | 0.00 | 0.00 | 0.00 | 98 | 978.3 |
| 20260507230420 | 73 | 245 | 0.0 | 0.0 | 0.00 | 0.00 | 0.00 | 99 | 978.1 |
| 20260507225920 | 72 | 245 | 0.0 | 0.0 | 0.00 | 0.00 | 0.00 | 99 | 978.0 |
| 20260507225417 | 72 | 245 | 0.0 | 0.0 | 0.00 | 0.00 | 0.00 | 98 | 977.9 |
| 20260507224913 | 72 | 245 | 0.0 | 0.0 | 0.00 | 0.00 | 0.00 | 98 | 978.2 |
| 20260507224409 | 72 | 245 | 0.0 | 0.0 | 0.00 | 0.00 | 0.00 | 98 | 978.1 |
| 20260507223906 | 73 | 244 | 0.0 | 0.0 | 0.00 | 0.00 | 0.00 | 98 | 977.9 |
| 20260507223402 | 73 | 235 | 0.0 | 0.0 | 0.00 | 0.00 | 0.00 | 98 | 978.1 |
| 20260507222859 | 73 | 224 | 0.0 | 0.0 | 0.00 | 0.00 | 0.00 | 98 | 977.9 |
| 20260507222355 | 73 | 217 | 0.0 | 0.0 | 0.00 | 0.00 | 0.00 | 98 | 978.1 |
| 20260507221853 | 73 | 217 | 0.0 | 0.0 | 0.00 | 0.00 | 0.00 | 97 | 977.8 |
| 20260507221349 | 73 | 217 | 0.0 | 0.0 | 0.00 | 0.00 | 0.00 | 97 | 977.9 |
| 20260507220845 | 73 | 234 | 0.0 | 0.0 | 0.00 | 0.00 | 0.00 | 97 | 977.7 |
| 20260507220343 | 73 | 234 | 0.0 | 0.0 | 0.00 | 0.00 | 0.00 | 97 | 977.7 |
| 20260507215839 | 73 | 234 | 0.0 | 0.0 | 0.00 | 0.00 | 0.00 | 97 | 977.5 |
| 20260507215336 | 73 | 234 | 0.0 | 0.0 | 0.00 | 0.00 | 0.00 | 97 | 977.8 |
| 20260507214834 | 73 | 234 | 0.0 | 0.0 | 0.00 | 0.00 | 0.00 | 97 | 977.8 |
| 20260507214331 | 73 | 234 | 0.0 | 0.0 | 0.00 | 0.00 | 0.00 | 96 | 977.7 |
| 20260507213826 | 73 | 234 | 0.0 | 0.9 | 0.00 | 0.00 | 0.00 | 96 | 977.8 |
| 20260507213323 | 73 | 50 | 2.6 | 2.6 | 0.00 | 0.00 | 0.00 | 96 | 977.6 |
| 20260507212820 | 73 | 40 | 2.6 | 5.2 | 0.00 | 0.00 | 0.00 | 96 | 977.9 |
| 20260507212316 | 73 | 127 | 2.6 | 4.3 | 0.00 | 0.00 | 0.00 | 97 | 977.3 |
| 20260507211812 | 73 | 79 | 0.9 | 5.2 | 0.00 | 0.00 | 0.00 | 97 | 977.8 |
| 20260507211309 | 73 | 52 | 2.6 | 5.2 | 0.00 | 0.00 | 0.00 | 97 | 977.6 |
| 20260507210806 | 72 | 46 | 3.5 | 6.1 | 0.00 | 0.00 | 0.00 | 98 | 977.7 |
| 20260507210303 | 72 | 49 | 2.6 | 5.2 | 0.00 | 0.00 | 0.00 | 97 | 977.7 |
| 20260507205759 | 72 | 60 | 3.5 | 4.3 | 0.00 | 0.00 | 0.00 | 98 | 977.6 |
| 20260507205257 | 72 | 138 | 0.9 | 6.1 | 0.00 | 0.00 | 0.00 | 98 | 977.7 |
| 20260507204752 | 72 | 21 | 0.9 | 2.6 | 0.00 | 0.00 | 0.00 | 98 | 977.5 |
| 20260507204250 | 72 | 56 | 2.6 | 2.6 | 0.00 | 0.00 | 0.00 | 98 | 977.5 |
| 20260507203748 | 72 | 347 | 2.6 | 4.3 | 0.00 | 0.00 | 0.00 | 99 | 977.7 |
| 20260507203245 | 72 | 67 | 1.7 | 2.6 | 0.00 | 0.00 | 0.00 | 99 | 977.6 |
| 20260507202741 | 72 | 104 | 0.0 | 2.6 | 0.00 | 0.00 | 0.00 | 99 | 977.7 |
| 20260507202237 | 72 | 32 | 2.6 | 5.2 | 0.00 | 0.00 | 0.00 | 99 | 977.6 |
| 20260507201732 | 72 | 64 | 0.9 | 7.0 | 0.00 | 0.00 | 0.00 | 99 | 977.3 |
| 20260507201230 | 72 | 62 | 0.9 | 5.2 | 0.00 | 0.00 | 0.00 | 99 | 977.5 |
| 20260507200726 | 72 | 60 | 0.0 | 6.1 | 0.00 | 0.00 | 0.00 | 99 | 977.5 |
| 20260507200222 | 72 | 101 | 1.7 | 6.1 | 0.00 | 0.00 | 0.00 | 99 | 977.5 |
| 20260507195718 | 72 | 77 | 2.6 | 7.0 | 0.00 | 0.00 | 0.00 | 99 | 977.3 |
| 20260507195216 | 72 | 81 | 0.9 | 5.2 | 0.00 | 0.00 | 0.00 | 99 | 977.3 |
| 20260507194713 | 72 | 83 | 2.6 | 6.1 | 0.00 | 0.00 | 0.00 | 99 | 977.3 |
| 20260507194209 | 72 | 139 | 0.9 | 7.0 | 0.00 | 0.00 | 0.00 | 99 | 977.6 |
| 20260507193705 | 72 | 95 | 2.6 | 5.2 | 0.00 | 0.00 | 0.00 | 99 | 977.5 |
| 20260507193202 | 73 | 31 | 2.6 | 5.2 | 0.00 | 0.00 | 0.00 | 98 | 977.3 |
| 20260507192658 | 73 | 38 | 0.9 | 4.3 | 0.00 | 0.00 | 0.00 | 98 | 977.5 |
| 20260507192155 | 73 | 41 | 6.1 | 7.8 | 0.00 | 0.00 | 0.00 | 97 | 977.8 |
| 20260507191651 | 73 | 100 | 0.9 | 6.1 | 0.00 | 0.00 | 0.00 | 97 | 977.6 |
| 20260507191148 | 74 | 74 | 3.5 | 7.0 | 0.00 | 0.00 | 0.00 | 96 | 977.8 |
| 20260507190645 | 74 | 51 | 2.6 | 4.3 | 0.00 | 0.00 | 0.00 | 97 | 977.7 |
| 20260507190144 | 75 | 67 | 2.6 | 4.3 | 0.00 | 0.00 | 0.00 | 97 | 977.9 |
| 20260507185642 | 75 | 90 | 0.9 | 0.9 | 0.00 | 0.00 | 0.00 | 96 | 977.8 |
| 20260507185138 | 75 | 55 | 1.7 | 2.6 | 0.00 | 0.00 | 0.00 | 94 | 978.0 |
| 20260507184636 | 75 | 231 | 0.0 | 0.0 | 0.00 | 0.00 | 0.00 | 92 | 977.7 |
| 20260507184134 | 75 | 231 | 0.0 | 0.0 | 0.00 | 0.00 | 0.00 | 92 | 977.7 |
| 20260507183630 | 75 | 230 | 0.0 | 0.0 | 0.00 | 0.00 | 0.00 | 93 | 977.6 |
| 20260507183127 | 75 | 231 | 0.0 | 0.0 | 0.00 | 0.00 | 0.00 | 93 | 978.0 |
| 20260507182623 | 75 | 47 | 0.9 | 0.9 | 0.00 | 0.00 | 0.00 | 92 | 977.8 |
| 20260507182120 | 75 | 226 | 0.0 | 0.0 | 0.00 | 0.00 | 0.00 | 94 | 977.6 |
| 20260507181616 | 76 | 228 | 0.0 | 0.0 | 0.00 | 0.00 | 0.00 | 95 | 977.6 |
| 20260507181113 | 76 | 104 | 1.7 | 1.7 | 0.00 | 0.00 | 0.00 | 95 | 977.7 |
| 20260507180609 | 76 | 152 | 0.0 | 0.9 | 0.00 | 0.00 | 0.00 | 94 | 977.8 |
| 20260507180106 | 76 | 61 | 0.9 | 1.7 | 0.00 | 0.00 | 0.00 | 94 | 977.7 |
| 20260507175602 | 76 | 126 | 0.9 | 1.7 | 0.00 | 0.00 | 0.00 | 93 | 977.8 |
| 20260507175100 | 76 | 82 | 2.6 | 4.3 | 0.00 | 0.00 | 0.00 | 93 | 977.5 |
| 20260507174557 | 77 | 79 | 1.7 | 5.2 | 0.00 | 0.00 | 0.00 | 92 | 977.1 |
| 20260507174054 | 77 | 104 | 0.9 | 5.2 | 0.00 | 0.00 | 0.00 | 91 | 977.5 |
| 20260507173551 | 77 | 104 | 1.7 | 4.3 | 0.00 | 0.00 | 0.00 | 90 | 977.5 |
| 20260507173048 | 77 | 128 | 0.9 | 2.6 | 0.00 | 0.00 | 0.00 | 88 | 977.5 |
| 20260507172544 | 78 | 108 | 2.6 | 5.2 | 0.00 | 0.00 | 0.00 | 85 | 977.3 |
| 20260507172042 | 78 | 160 | 0.0 | 4.3 | 0.00 | 0.00 | 0.00 | 84 | 977.3 |
| 20260507171536 | 78 | 64 | 3.5 | 7.8 | 0.00 | 0.00 | 0.00 | 82 | 977.1 |
| 20260507171034 | 78 | 52 | 4.3 | 7.8 | 0.00 | 0.00 | 0.00 | 83 | 977.3 |
| 20260507170530 | 77 | 260 | 0.9 | 0.9 | 0.00 | 0.00 | 0.00 | 85 | 977.2 |
| 20260507170028 | 77 | 229 | 0.0 | 1.7 | 0.00 | 0.00 | 0.00 | 86 | 977.1 |
| 20260507165523 | 77 | 224 | 0.9 | 0.9 | 0.00 | 0.00 | 0.00 | 88 | 976.9 |
| 20260507165020 | 77 | 239 | 0.0 | 0.9 | 0.00 | 0.00 | 0.00 | 88 | 976.8 |
| 20260507164516 | 77 | 223 | 0.0 | 0.0 | 0.00 | 0.00 | 0.00 | 88 | 976.8 |
| 20260507164014 | 77 | 197 | 0.0 | 0.0 | 0.00 | 0.00 | 0.00 | 86 | 976.7 |
| 20260507163510 | 78 | 116 | 0.0 | 0.9 | 0.00 | 0.00 | 0.00 | 85 | 976.7 |
| 20260507163009 | 78 | 212 | 0.0 | 0.0 | 0.00 | 0.00 | 0.00 | 84 | 976.7 |
| 20260507162503 | 78 | 278 | 0.0 | 0.9 | 0.00 | 0.00 | 0.00 | 85 | 977.1 |
| 20260507162000 | 78 | 221 | 0.0 | 0.0 | 0.00 | 0.00 | 0.00 | 84 | 976.8 |
| 20260507161456 | 78 | 214 | 0.0 | 0.0 | 0.00 | 0.00 | 0.00 | 84 | 976.9 |
| 20260507160954 | 78 | 201 | 0.0 | 0.0 | 0.00 | 0.00 | 0.00 | 84 | 976.8 |
| 20260507160449 | 78 | 213 | 0.0 | 0.0 | 0.00 | 0.00 | 0.00 | 85 | 976.6 |
| 20260507155945 | 79 | 210 | 0.0 | 0.0 | 0.00 | 0.00 | 0.00 | 85 | 976.7 |
| 20260507155441 | 79 | 229 | 0.0 | 0.0 | 0.00 | 0.00 | 0.00 | 85 | 976.5 |
| 20260507154939 | 79 | 216 | 0.0 | 0.0 | 0.00 | 0.00 | 0.00 | 84 | 976.6 |
| 20260507154435 | 80 | 215 | 0.0 | 0.0 | 0.00 | 0.00 | 0.00 | 86 | 976.5 |
| 20260507153932 | 80 | 227 | 0.0 | 0.0 | 0.00 | 0.00 | 0.00 | 85 | 976.6 |
| 20260507153429 | 80 | 212 | 0.0 | 0.0 | 0.00 | 0.00 | 0.00 | 85 | 976.7 |
| 20260507152925 | 81 | 197 | 0.0 | 0.0 | 0.00 | 0.00 | 0.00 | 84 | 976.7 |
| 20260507152422 | 81 | 177 | 0.0 | 0.0 | 0.00 | 0.00 | 0.00 | 85 | 976.6 |
| 20260507151917 | 80 | 163 | 0.9 | 0.9 | 0.00 | 0.00 | 0.00 | 85 | 976.5 |
| 20260507151414 | 80 | 182 | 0.0 | 0.9 | 0.00 | 0.00 | 0.00 | 85 | 976.5 |
| 20260507150911 | 80 | 156 | 1.7 | 2.6 | 0.00 | 0.00 | 0.00 | 85 | 976.4 |
| 20260507150408 | 80 | 196 | 0.0 | 0.0 | 0.00 | 0.00 | 0.00 | 86 | 976.3 |
| 20260507145904 | 80 | 215 | 0.0 | 0.0 | 0.00 | 0.00 | 0.00 | 87 | 976.1 |
| 20260507145400 | 80 | 212 | 0.0 | 0.0 | 0.00 | 0.00 | 0.00 | 87 | 976.0 |
| 20260507144857 | 80 | 220 | 0.0 | 0.0 | 0.00 | 0.00 | 0.00 | 86 | 975.7 |
| 20260507144355 | 80 | 211 | 0.0 | 0.0 | 0.00 | 0.00 | 0.00 | 86 | 975.5 |
| 20260507143851 | 80 | 205 | 0.0 | 0.0 | 0.00 | 0.00 | 0.00 | 86 | 975.4 |
| 20260507143349 | 80 | 203 | 0.0 | 0.0 | 0.00 | 0.00 | 0.00 | 86 | 975.2 |
| 20260507142845 | 80 | 215 | 0.0 | 0.0 | 0.00 | 0.00 | 0.00 | 86 | 975.2 |
| 20260507142341 | 80 | 213 | 0.0 | 0.0 | 0.00 | 0.00 | 0.00 | 86 | 975.0 |
| 20260507141838 | 80 | 200 | 0.0 | 0.0 | 0.00 | 0.00 | 0.00 | 86 | 975.3 |
| 20260507141335 | 80 | 225 | 0.0 | 0.0 | 0.00 | 0.00 | 0.00 | 87 | 974.8 |
| 20260507140831 | 80 | 215 | 0.0 | 0.0 | 0.00 | 0.00 | 0.00 | 87 | 974.3 |
| 20260507140328 | 80 | 219 | 0.0 | 0.0 | 0.00 | 0.00 | 0.00 | 87 | 974.2 |
| 20260507135826 | 80 | 215 | 0.0 | 0.0 | 0.00 | 0.00 | 0.00 | 89 | 974.3 |
| 20260507135322 | 80 | 214 | 0.0 | 0.0 | 0.00 | 0.00 | 0.00 | 90 | 974.4 |
| 20260507134820 | 80 | 215 | 0.0 | 0.0 | 0.00 | 0.00 | 0.00 | 90 | 974.1 |
| 20260507134316 | 80 | 224 | 0.0 | 0.0 | 0.00 | 0.00 | 0.00 | 92 | 973.9 |
| 20260507133812 | 80 | 212 | 0.0 | 0.0 | 0.00 | 0.00 | 0.00 | 92 | 974.1 |
| 20260507133308 | 81 | 212 | 0.0 | 0.0 | 0.00 | 0.00 | 0.00 | 92 | 974.3 |
| 20260507132806 | 81 | 219 | 0.0 | 0.0 | 0.00 | 0.00 | 0.00 | 92 | 974.1 |
| 20260507132306 | 81 | 221 | 0.0 | 0.0 | 0.00 | 0.00 | 0.00 | 92 | 973.8 |
| 20260507131759 | 81 | 218 | 0.0 | 0.0 | 0.00 | 0.00 | 0.00 | 92 | 973.9 |
| 20260507131256 | 81 | 205 | 0.0 | 0.0 | 0.00 | 0.00 | 0.00 | 93 | 974.0 |
| 20260507130753 | 81 | 207 | 0.0 | 0.0 | 0.00 | 0.00 | 0.00 | 92 | 973.9 |
| 20260507130250 | 81 | 219 | 0.0 | 0.0 | 0.00 | 0.00 | 0.00 | 92 | 973.9 |
| 20260507125749 | 81 | 226 | 0.0 | 0.0 | 0.00 | 0.00 | 0.00 | 92 | 974.0 |
| 20260507125246 | 81 | 226 | 0.0 | 0.0 | 0.00 | 0.00 | 0.00 | 92 | 974.1 |
| 20260507124743 | 82 | 226 | 0.0 | 0.0 | 0.00 | 0.00 | 0.00 | 92 | 973.8 |
| 20260507124240 | 82 | 226 | 0.0 | 0.0 | 0.00 | 0.00 | 0.00 | 92 | 974.0 |
| 20260507123738 | 82 | 226 | 0.0 | 0.0 | 0.00 | 0.00 | 0.00 | 91 | 973.9 |
| 20260507123235 | 82 | 226 | 0.0 | 0.0 | 0.00 | 0.00 | 0.00 | 92 | 973.8 |
| 20260507122730 | 82 | 223 | 0.0 | 0.0 | 0.00 | 0.00 | 0.00 | 92 | 973.8 |
| 20260507122227 | 81 | 218 | 0.0 | 0.0 | 0.00 | 0.00 | 0.00 | 91 | 973.7 |
| 20260507121722 | 81 | 211 | 0.0 | 0.0 | 0.00 | 0.00 | 0.00 | 92 | 973.5 |
| 20260507121218 | 81 | 218 | 0.0 | 0.0 | 0.00 | 0.00 | 0.00 | 91 | 973.5 |
| 20260507120715 | 82 | 218 | 0.0 | 0.0 | 0.00 | 0.00 | 0.00 | 91 | 972.9 |
| 20260507120212 | 82 | 218 | 0.0 | 0.0 | 0.00 | 0.00 | 0.00 | 91 | 973.0 |
| 20260507115708 | 82 | 219 | 0.0 | 0.0 | 0.00 | 0.00 | 0.00 | 91 | 972.8 |
| 20260507115204 | 82 | 219 | 0.0 | 0.0 | 0.00 | 0.00 | 0.00 | 91 | 972.8 |
| 20260507114659 | 82 | 212 | 0.0 | 0.0 | 0.00 | 0.00 | 0.00 | 90 | 972.5 |
| 20260507114157 | 82 | 210 | 0.0 | 0.0 | 0.00 | 0.00 | 0.00 | 89 | 972.5 |
| 20260507113654 | 82 | 215 | 0.0 | 0.0 | 0.00 | 0.00 | 0.00 | 89 | 972.4 |
| 20260507113151 | 82 | 215 | 0.0 | 0.0 | 0.00 | 0.00 | 0.00 | 90 | 972.3 |
| 20260507112649 | 83 | 216 | 0.0 | 0.0 | 0.00 | 0.00 | 0.00 | 89 | 972.3 |
| 20260507112145 | 83 | 211 | 0.0 | 0.0 | 0.00 | 0.00 | 0.00 | 90 | 972.2 |
| 20260507111643 | 83 | 211 | 0.0 | 0.0 | 0.00 | 0.00 | 0.00 | 89 | 972.0 |
| 20260507111139 | 84 | 227 | 0.0 | 0.0 | 0.00 | 0.00 | 0.00 | 89 | 971.8 |
| 20260507110635 | 84 | 228 | 0.0 | 0.0 | 0.00 | 0.00 | 0.00 | 88 | 971.8 |
| 20260507110132 | 84 | 228 | 0.0 | 0.0 | 0.00 | 0.00 | 0.00 | 89 | 971.6 |
| 20260507105629 | 84 | 227 | 0.0 | 0.0 | 0.00 | 0.00 | 0.00 | 88 | 971.5 |
| 20260507105125 | 84 | 228 | 0.0 | 0.0 | 0.00 | 0.00 | 0.00 | 88 | 971.5 |
| 20260507104623 | 84 | 231 | 0.0 | 0.0 | 0.00 | 0.00 | 0.00 | 88 | 971.8 |
| 20260507104119 | 84 | 229 | 0.0 | 0.0 | 0.00 | 0.00 | 0.00 | 88 | 971.6 |
| 20260507103615 | 83 | 240 | 0.0 | 0.0 | 0.00 | 0.00 | 0.00 | 88 | 971.7 |
| 20260507103112 | 82 | 241 | 0.0 | 0.0 | 0.00 | 0.00 | 0.00 | 87 | 971.7 |
| 20260507102608 | 81 | 228 | 0.0 | 0.0 | 0.00 | 0.00 | 0.00 | 90 | 971.5 |
| 20260507102105 | 81 | 305 | 0.0 | 0.0 | 0.00 | 0.00 | 0.00 | 97 | 971.6 |
| 20260507101601 | 80 | 235 | 0.0 | 0.0 | 0.00 | 0.00 | 0.00 | 98 | 971.5 |
| 20260507101057 | 80 | 227 | 0.0 | 0.0 | 0.00 | 0.00 | 0.00 | 99 | 971.4 |
| 20260507100554 | 80 | 218 | 0.0 | 0.0 | 0.00 | 0.00 | 0.00 | 99 | 971.4 |
| 20260507100052 | 80 | 211 | 0.0 | 0.0 | 0.00 | 0.00 | 0.00 | 99 | 971.7 |
| 20260507095550 | 81 | 221 | 0.0 | 0.0 | 0.00 | 0.00 | 0.00 | 99 | 971.6 |
| 20260507095046 | 80 | 221 | 0.0 | 0.0 | 0.00 | 0.00 | 0.00 | 99 | 971.8 |
| 20260507094542 | 81 | 216 | 0.0 | 0.0 | 0.00 | 0.00 | 0.00 | 99 | 971.8 |
| 20260507094040 | 82 | 213 | 0.0 | 0.0 | 0.00 | 0.00 | 0.00 | 99 | 971.9 |
| 20260507093537 | 83 | 220 | 0.0 | 0.0 | 0.00 | 0.00 | 0.00 | 99 | 971.9 |
| 20260507093036 | 83 | 213 | 0.0 | 0.0 | 0.00 | 0.00 | 0.00 | 97 | 972.2 |
| 20260507092531 | 83 | 210 | 0.0 | 0.0 | 0.00 | 0.00 | 0.00 | 96 | 971.8 |
| 20260507092028 | 83 | 200 | 0.0 | 0.0 | 0.00 | 0.00 | 0.00 | 91 | 971.9 |
| 20260507091525 | 85 | 181 | 0.0 | 0.0 | 0.00 | 0.00 | 0.00 | 87 | 972.0 |
| 20260507091021 | 88 | 193 | 0.0 | 0.0 | 0.00 | 0.00 | 0.00 | 83 | 972.2 |
| 20260507090517 | 91 | 201 | 0.0 | 0.0 | 0.00 | 0.00 | 0.00 | 77 | 972.3 |
| 20260507090014 | 92 | 195 | 0.0 | 0.0 | 0.00 | 0.00 | 0.00 | 71 | 972.2 |
| 20260507085511 | 92 | 195 | 0.0 | 0.0 | 0.00 | 0.00 | 0.00 | 65 | 971.9 |
| 20260507085008 | 92 | 51 | 0.9 | 2.6 | 0.00 | 0.00 | 0.00 | 62 | 972.0 |
| 20260507084505 | 92 | 350 | 0.9 | 0.9 | 0.00 | 0.00 | 0.00 | 63 | 972.0 |
| 20260507084002 | 92 | 65 | 2.6 | 4.3 | 0.00 | 0.00 | 0.00 | 62 | 971.9 |
| 20260507083458 | 93 | 163 | 0.0 | 0.0 | 0.00 | 0.00 | 0.00 | 63 | 972.1 |
| 20260507082954 | 93 | 178 | 0.0 | 0.0 | 0.00 | 0.00 | 0.00 | 62 | 972.0 |
| 20260507082451 | 93 | 193 | 0.0 | 0.0 | 0.00 | 0.00 | 0.00 | 61 | 972.2 |
| 20260507081947 | 93 | 158 | 0.0 | 1.7 | 0.00 | 0.00 | 0.00 | 63 | 972.3 |
| 20260507081444 | 93 | 82 | 0.9 | 1.7 | 0.00 | 0.00 | 0.00 | 63 | 972.3 |
| 20260507080941 | 92 | 152 | 1.7 | 5.2 | 0.00 | 0.00 | 0.00 | 63 | 972.4 |
| 20260507080436 | 92 | 51 | 0.0 | 4.3 | 0.00 | 0.00 | 0.00 | 64 | 972.4 |
| 20260507075932 | 93 | 165 | 2.6 | 5.2 | 0.00 | 0.00 | 0.00 | 63 | 972.2 |
| 20260507075429 | 93 | 82 | 0.9 | 5.2 | 0.00 | 0.00 | 0.00 | 64 | 972.5 |
| 20260507074925 | 93 | 170 | 0.0 | 0.0 | 0.00 | 0.00 | 0.00 | 63 | 972.7 |
| 20260507074422 | 93 | 54 | 0.0 | 4.3 | 0.00 | 0.00 | 0.00 | 63 | 972.7 |
| 20260507073920 | 93 | 168 | 0.0 | 0.0 | 0.00 | 0.00 | 0.00 | 63 | 972.7 |
| 20260507073416 | 93 | 203 | 0.0 | 0.0 | 0.00 | 0.00 | 0.00 | 64 | 972.6 |
| 20260507072913 | 93 | 177 | 0.0 | 1.7 | 0.00 | 0.00 | 0.00 | 65 | 972.8 |
| 20260507072411 | 93 | 36 | 0.0 | 0.0 | 0.00 | 0.00 | 0.00 | 63 | 972.8 |
| 20260507071908 | 94 | 198 | 0.0 | 0.0 | 0.00 | 0.00 | 0.00 | 61 | 972.9 |
| 20260507071405 | 94 | 50 | 3.5 | 4.3 | 0.00 | 0.00 | 0.00 | 64 | 973.0 |
| 20260507070901 | 94 | 253 | 0.0 | 0.0 | 0.00 | 0.00 | 0.00 | 66 | 973.0 |
| 20260507070359 | 94 | 350 | 2.6 | 7.0 | 0.00 | 0.00 | 0.00 | 63 | 972.9 |
| 20260507065855 | 95 | 305 | 0.0 | 0.0 | 0.00 | 0.00 | 0.00 | 61 | 973.3 |
| 20260507065352 | 94 | 155 | 0.0 | 4.3 | 0.00 | 0.00 | 0.00 | 65 | 973.1 |
| 20260507064849 | 93 | 233 | 0.0 | 0.9 | 0.00 | 0.00 | 0.00 | 66 | 973.3 |
| 20260507064348 | 94 | 262 | 0.0 | 0.0 | 0.00 | 0.00 | 0.00 | 64 | 973.3 |
| 20260507063845 | 94 | 247 | 0.0 | 0.0 | 0.00 | 0.00 | 0.00 | 63 | 973.5 |
| 20260507063342 | 95 | 263 | 0.0 | 0.0 | 0.00 | 0.00 | 0.00 | 63 | 973.6 |
| 20260507062838 | 95 | 242 | 0.0 | 0.0 | 0.00 | 0.00 | 0.00 | 63 | 973.9 |
| 20260507062335 | 94 | 247 | 0.0 | 0.0 | 0.00 | 0.00 | 0.00 | 63 | 973.8 |
| 20260507061833 | 93 | 239 | 0.0 | 0.0 | 0.00 | 0.00 | 0.00 | 64 | 974.0 |
| 20260507061331 | 94 | 183 | 0.0 | 0.0 | 0.00 | 0.00 | 0.00 | 64 | 974.2 |
| 20260507060830 | 94 | 204 | 0.0 | 0.0 | 0.00 | 0.00 | 0.00 | 63 | 974.6 |
| 20260507060326 | 94 | 204 | 0.0 | 0.0 | 0.00 | 0.00 | 0.00 | 65 | 974.5 |
| 20260507055823 | 93 | 197 | 0.0 | 0.0 | 0.00 | 0.00 | 0.00 | 64 | 974.7 |
| 20260507055318 | 94 | 223 | 0.0 | 0.0 | 0.00 | 0.00 | 0.00 | 64 | 974.8 |
| 20260507054815 | 94 | 218 | 0.0 | 0.0 | 0.00 | 0.00 | 0.00 | 62 | 975.1 |
| 20260507054311 | 94 | 199 | 0.0 | 0.0 | 0.00 | 0.00 | 0.00 | 63 | 975.3 |
| 20260507053808 | 94 | 240 | 0.0 | 0.0 | 0.00 | 0.00 | 0.00 | 63 | 975.6 |
| 20260507053306 | 93 | 188 | 0.0 | 0.0 | 0.00 | 0.00 | 0.00 | 63 | 975.7 |
| 20260507052805 | 93 | 44 | 0.0 | 0.9 | 0.00 | 0.00 | 0.00 | 63 | 975.7 |
| 20260507052301 | 94 | 209 | 0.0 | 0.0 | 0.00 | 0.00 | 0.00 | 63 | 975.7 |
| 20260507051759 | 93 | 237 | 0.0 | 0.0 | 0.00 | 0.00 | 0.00 | 64 | 975.7 |
| 20260507051256 | 94 | 257 | 0.0 | 0.0 | 0.00 | 0.00 | 0.00 | 67 | 975.9 |
| 20260507050752 | 93 | 247 | 0.0 | 0.0 | 0.00 | 0.00 | 0.00 | 69 | 976.0 |
| 20260507050249 | 92 | 120 | 0.0 | 0.0 | 0.00 | 0.00 | 0.00 | 68 | 976.0 |
| 20260507045746 | 91 | 243 | 0.0 | 0.9 | 0.00 | 0.00 | 0.00 | 69 | 975.9 |
| 20260507045242 | 92 | 18 | 0.0 | 0.0 | 0.00 | 0.00 | 0.00 | 68 | 976.2 |
| 20260507044740 | 91 | 154 | 0.0 | 0.0 | 0.00 | 0.00 | 0.00 | 68 | 976.1 |
| 20260507044236 | 93 | 212 | 0.0 | 0.0 | 0.00 | 0.00 | 0.00 | 69 | 976.3 |
| 20260507043732 | 91 | 210 | 0.0 | 0.0 | 0.00 | 0.00 | 0.00 | 70 | 976.2 |
| 20260507043229 | 93 | 171 | 0.0 | 0.0 | 0.00 | 0.00 | 0.00 | 65 | 976.3 |
| 20260507042725 | 93 | 238 | 0.0 | 0.0 | 0.00 | 0.00 | 0.00 | 69 | 976.5 |
| 20260507042220 | 92 | 251 | 0.0 | 0.0 | 0.00 | 0.00 | 0.00 | 67 | 976.3 |
| 20260507041718 | 91 | 260 | 0.0 | 0.0 | 0.00 | 0.00 | 0.00 | 69 | 976.4 |
| 20260507041214 | 90 | 252 | 0.0 | 0.0 | 0.00 | 0.00 | 0.00 | 71 | 976.3 |
| 20260507040711 | 90 | 230 | 0.0 | 0.0 | 0.00 | 0.00 | 0.00 | 71 | 976.4 |
| 20260507040207 | 90 | 159 | 0.0 | 0.9 | 0.00 | 0.00 | 0.00 | 71 | 976.7 |
| 20260507035704 | 90 | 163 | 0.0 | 0.0 | 0.00 | 0.00 | 0.00 | 70 | 976.6 |
| 20260507035159 | 90 | 135 | 0.0 | 0.9 | 0.00 | 0.00 | 0.00 | 72 | 976.7 |
| 20260507034656 | 90 | 167 | 0.0 | 2.6 | 0.00 | 0.00 | 0.00 | 71 | 976.6 |
| 20260507034154 | 90 | 181 | 0.0 | 0.9 | 0.00 | 0.00 | 0.00 | 71 | 976.7 |
| 20260507033652 | 90 | 240 | 0.0 | 0.0 | 0.00 | 0.00 | 0.00 | 72 | 976.8 |
| 20260507033149 | 89 | 198 | 0.0 | 0.0 | 0.00 | 0.00 | 0.00 | 71 | 976.8 |
| 20260507032647 | 91 | 240 | 0.0 | 0.0 | 0.00 | 0.00 | 0.00 | 71 | 976.9 |
| 20260507032142 | 90 | 224 | 0.0 | 0.0 | 0.00 | 0.00 | 0.00 | 71 | 977.0 |
| 20260507031639 | 88 | 227 | 0.0 | 0.0 | 0.00 | 0.00 | 0.00 | 72 | 977.1 |
| 20260507031136 | 89 | 222 | 0.0 | 0.0 | 0.00 | 0.00 | 0.00 | 71 | 977.2 |
| 20260507030633 | 88 | 214 | 0.0 | 0.0 | 0.00 | 0.00 | 0.00 | 72 | 977.0 |
| 20260507030131 | 90 | 210 | 0.0 | 0.0 | 0.00 | 0.00 | 0.00 | 70 | 976.9 |
| 20260507025627 | 90 | 221 | 0.0 | 0.0 | 0.00 | 0.00 | 0.00 | 71 | 977.2 |
| 20260507025124 | 90 | 224 | 0.0 | 0.0 | 0.00 | 0.00 | 0.00 | 71 | 977.1 |
| 20260507024622 | 88 | 200 | 0.0 | 0.0 | 0.00 | 0.00 | 0.00 | 76 | 977.0 |
| 20260507024119 | 86 | 196 | 0.0 | 0.0 | 0.00 | 0.00 | 0.00 | 75 | 977.1 |
| 20260507023615 | 87 | 163 | 0.9 | 0.9 | 0.00 | 0.00 | 0.00 | 75 | 977.5 |
| 20260507023112 | 89 | 194 | 0.0 | 0.0 | 0.00 | 0.00 | 0.00 | 73 | 977.1 |
| 20260507022609 | 89 | 211 | 0.0 | 0.0 | 0.00 | 0.00 | 0.00 | 72 | 977.2 |
| 20260507022104 | 89 | 223 | 0.0 | 0.0 | 0.00 | 0.00 | 0.00 | 72 | 977.1 |
| 20260507021601 | 90 | 197 | 0.0 | 0.0 | 0.00 | 0.00 | 0.00 | 70 | 977.2 |
| 20260507021057 | 89 | 219 | 0.0 | 0.0 | 0.00 | 0.00 | 0.00 | 74 | 976.9 |
| 20260507020555 | 89 | 203 | 0.0 | 0.9 | 0.00 | 0.00 | 0.00 | 74 | 977.1 |
| 20260507020051 | 88 | 196 | 0.0 | 0.0 | 0.00 | 0.00 | 0.00 | 77 | 977.1 |
| 20260507015550 | 87 | 230 | 0.0 | 0.0 | 0.00 | 0.00 | 0.00 | 76 | 977.1 |
| 20260507015047 | 86 | 229 | 0.0 | 0.0 | 0.00 | 0.00 | 0.00 | 77 | 977.1 |
| 20260507014543 | 87 | 231 | 0.0 | 0.0 | 0.00 | 0.00 | 0.00 | 78 | 977.2 |
| 20260507014039 | 86 | 208 | 0.0 | 0.0 | 0.00 | 0.00 | 0.00 | 79 | 977.0 |
| 20260507013536 | 86 | 34 | 0.0 | 0.0 | 0.00 | 0.00 | 0.00 | 79 | 977.2 |
| 20260507013033 | 82 | 231 | 0.0 | 0.0 | 0.00 | 0.00 | 0.00 | 85 | 977.0 |
| 20260507012530 | 82 | 231 | 0.0 | 0.0 | 0.00 | 0.00 | 0.00 | 85 | 977.1 |
| 20260507012026 | 82 | 231 | 0.0 | 0.0 | 0.00 | 0.00 | 0.00 | 85 | 977.1 |
| 20260507011524 | 82 | 231 | 0.0 | 0.0 | 0.00 | 0.00 | 0.00 | 85 | 977.2 |
| 20260507011020 | 82 | 248 | 0.0 | 0.0 | 0.00 | 0.00 | 0.00 | 86 | 977.1 |